Regional Weather Roundup
Issued by NWS

Home | Current Version | Previous Version | Text Only | Print | Product List | Glossary On
Versions: 1 2 3 4 5 6 7 8 9 10 11 12 13 14 15 16 17 18 19 20 21 22 23 24 25 26 27 28 29 30 31 32 33 34 35 36 37 38 39 40 41 42 43 44 45 46 47 48 49 50
000
ASCA44 KEWX 250720
RWRMX

LATIN AMERICA AND CARIBBEAN REGIONAL WEATHER ROUNDUP
NATIONAL WEATHER SERVICE AUSTIN/SAN ANTONIO TX
200 AM CDT MON MAY 25 2015

NOTE: "FAIR" INDICATED FEW OR NO CLOUDS BELOW 12,000 FEET WITH NO
SIGNIFICANT WEATHER AND/OR OBSTRUCTIONS TO VISIBILITY.

BAJA CALIFORNIA

CITY           SKY/WX    TMP DP  RH WIND       PRES   REMARKS
LA PAZ           N/A    N/A N/A N/A MISG        N/A
TIJUANA        CLOUDY    61  52  72 N3        30.00F

NORTHWESTERN MEXICO

CITY           SKY/WX    TMP DP  RH WIND       PRES   REMARKS
HERMOSILLO     CLEAR     68  46  45 CALM      29.92S

NORTHEASTERN MEXICO

CITY           SKY/WX    TMP DP  RH WIND       PRES   REMARKS
MATAMOROS      CLEAR     77  75  94 SE7       29.91S
MONTERREY      CLOUDY    72  70  94 E9        29.83F
TORREON        CLEAR     81  37  21 SW7       29.93R

WESTERN MEXICO

CITY           SKY/WX    TMP DP  RH WIND       PRES   REMARKS
DEL BAJIO      PTCLDY    61  54  77 SE6       30.27F
GUADALAJARA    PTCLDY    66  50  55 CALM      30.16S
MAZATLAN       CLEAR     64  59  82 CALM      29.88R
P. VALLARTA    CLEAR     77  72  83 CALM      29.89S
ZACATECAS        N/A    N/A N/A N/A MISG        N/A

CENTRAL MEXICO

CITY           SKY/WX    TMP DP  RH WIND       PRES   REMARKS
MEXICO CITY    MOCLDY    59  52  77 CALM      30.34F
QUERETARO      MOCLDY    61  57  88 E7        30.30F
S. LUIS POTOSI PTCLDY    63  57  82 SE7       30.19F
TOLUCA         MOCLDY    50  45  81 CALM      30.39F

SOUTHERN MEXICO

CITY           SKY/WX    TMP DP  RH WIND       PRES   REMARKS
ACAPULCO       MOCLDY    81  75  83 CALM      29.88F
VERACRUZ         N/A    N/A N/A N/A MISG        N/A

YUCATAN PENINSULA

CITY           SKY/WX    TMP DP  RH WIND       PRES   REMARKS
CANCUN         PTCLDY    82  75  78 E8        30.02F
COZUMEL        PTCLDY    73  73 100 CALM      30.02F
MERIDA         MOCLDY    81  72  74 E14       29.97F
TAPACHULA      MOCLDY    77  73  88 CALM      29.89F

CENTRAL AMERICA

CITY           SKY/WX    TMP DP  RH WIND       PRES   REMARKS
MANAGUA        PTSUNNY   79  70  73 E7        29.89S

CARIBBEAN

CITY           SKY/WX    TMP DP  RH WIND       PRES   REMARKS
ARUBA          PTCLDY    81  73  78 E21       29.89F
CURACAO        PTCLDY    79  72  78 E13       29.94S
KINGSTON       PTCLDY    82  72  69 N8        29.97S
NASSAU         PTCLDY    79  73  83 E3        30.12F
SAN JUAN       PTCLDY    79  73  83 SE5       30.04F
SANTO DOMINGO  PTCLDY    73  72  94 N5        30.03S
ST. CROIX      CLOUDY    79  70  73 NE7       30.02
ST. MAARTEN    PTCLDY    81  70  69 E13       30.00F
ST. THOMAS     CLOUDY    79  70  73 NE7       30.02

$$



USA.gov is the U.S. government's official web portal to all federal, state and local government web resources and services.